Temp
79 80 78 70 59 57 56 61 70 68 68 75 77 74 69 69 67 56 72 75 76 76 76 80 81 82 82 82 82 82 82 83 83 83 83 82 83 83 83 83 83 83 84 84 83 83 83 83 83
78 80 74 66 55 52 55 67 67 71 74 75 77 75 70 65 71 68 69 76 78 76 75 77 81 82 82 82 82 82 83 83 83 83 82 83 83 83 83 83 83 83 83 83 83 83 84 83 83
80 82 67 59 55 52 56 67 68 73 77 76 73 76 72 65 71 72 74 78 77 75 74 76 82 82 82 82 82 83 83 83 82 83 82 82 83 83 83 83 83 83 83 83 83 83 83 83 83
77 72 69 58 55 65 65 69 73 74 76 78 74 67 74 78 76 75 78 78 74 74 75 80 82 82 82 82 82 83 82 83 83 83 83 83 83 83 84 83 83 83 83 83 83 83 83 83 82
75 70 59 59 59 68 72 75 75 71 72 73 74 66 67 75 78 77 76 77 74 73 75 78 82 83 83 83 83 83 83 83 83 83 83 83 83 84 84 83 83 83 83 83 83 83 83 83 83
65 67 57 55 62 69 74 76 75 71 71 72 70 67 65 74 75 76 77 75 76 74 75 78 82 83 83 83 83 83 83 83 83 83 83 84 84 84 84 84 84 84 84 84 83 83 83 83 83
63 60 56 58 62 67 70 78 72 70 71 71 76 62 66 71 75 76 75 76 75 75 74 75 77 81 83 83 83 83 83 82 83 83 83 83 84 84 84 84 84 84 84 83 83 83 83 83 83
66 62 60 63 63 63 73 75 75 73 69 80 78 62 62 69 74 75 75 72 72 73 74 73 74 76 76 77 83 83 83 83 83 83 83 84 84 84 83 82 84 84 84 84 83 83 83 83 83
72 60 57 62 65 67 75 73 77 80 74 78 79 73 76 75 75 74 71 71 72 74 72 72 73 72 73 75 80 83 83 83 83 83 83 81 74 76 78 82 84 84 84 84 84 83 82 84 83
66 57 63 67 67 68 76 75 76 74 74 71 73 76 77 76 74 71 69 69 69 70 71 72 72 72 74 80 75 74 77 75 75 75 74 72 72 74 78 80 83 83 83 82 82 82 82 82 76
69 59 66 69 70 70 69 74 79 73 70 71 67 71 74 75 73 72 72 71 71 72 73 72 71 72 73 73 73 73 73 72 72 73 72 72 72 70 71 72 72 73 78 73 76 76 74 75 75
64 67 65 68 71 69 68 74 74 76 75 77 75 75 75 73 72 71 71 71 71 72 73 73 73 72 72 73 72 72 72 71 69 70 72 70 68 69 69 69 70 69 70 71 70 72 74 75 76
67 66 67 69 69 68 72 72 74 75 77 78 78 76 74 74 74 76 73 74 73 72 73 74 74 73 73 73 71 71 72 71 72 71 72 70 67 67 69 68 68 69 68 71 72 73 73 74 75
70 67 67 68 68 69 70 73 75 75 79 76 76 75 75 75 76 75 75 74 74 74 74 74 74 74 74 72 72 71 71 71 71 71 71 72 70 68 69 68 69 68 69 72 72 72 73 75 75
69 63 65 65 66 65 70 66 69 77 77 74 75 75 76 76 77 76 78 75 76 75 75 75 75 76 74 72 73 72 71 73 70 72 72 73 72 71 71 69 69 70 71 73 73 73 75 73 74
65 62 58 62 64 67 66 58 69 77 76 72 75 75 75 76 78 79 78 77 76 74 73 74 81 75 73 75 73 72 73 71 69 71 70 74 74 73 71 70 71 71 72 72 72 73 74 72 72
60 53 54 58 62 64 64 61 69 77 77 75 75 75 75 76 77 78 79 78 76 75 73 74 74 74 74 74 73 73 73 72 72 72 71 74 75 75 71 71 71 71 71 72 73 74 72 73 73
53 53 56 55 60 61 62 62 69 72 75 74 72 73 74 74 75 77 78 78 77 74 73 74 73 73 74 73 72 72 72 72 73 73 73 75 75 76 73 72 70 70 71 73 74 73 74 74 73
62 59 56 58 62 60 59 59 63 67 70 69 68 70 72 74 77 78 78 78 77 74 73 73 72 72 72 72 70 70 71 72 72 76 75 76 76 77 75 71 72 72 72 73 74 74 74 73 71
60 58 55 59 62 59 58 58 61 63 66 66 65 68 73 70 73 75 76 77 76 74 74 72 72 71 72 73 71 72 72 72 73 75 75 75 77 77 76 73 72 72 72 73 74 73 73 72 71
60 59 56 56 59 60 58 56 58 62 66 67 67 68 76 73 71 73 74 75 75 74 73 72 72 72 73 73 72 71 72 71 71 71 71 74 76 77 76 75 73 72 71 72 72 73 73 70 71
55 64 62 57 55 49 58 47 55 59 60 64 66 67 69 73 74 74 74 74 75 76 75 72 71 71 73 72 72 71 69 69 70 70 72 73 75 76 76 76 74 73 72 72 73 75 73 72 70
58 66 61 59 54 52 53 48 52 59 58 61 65 67 68 72 74 74 75 76 76 77 76 74 71 71 72 72 71 71 69 69 69 70 71 72 73 75 78 76 74 73 72 73 74 73 73 72 70
68 61 59 58 52 45 53 50 51 53 59 65 67 69 69 72 74 76 77 77 77 78 76 74 71 70 71 72 71 71 70 69 69 69 70 70 70 71 74 76 74 74 73 73 73 73 74 72 72
61 54 44 44 45 45 55 51 53 63 66 70 71 70 70 71 73 74 74 75 75 75 75 74 72 70 70 72 72 71 71 70 71 70 69 69 69 70 71 73 73 74 74 74 73 73 73 73 72
57 54 46 41 44 48 55 49 56 70 71 73 75 75 74 71 74 74 75 75 75 76 75 75 71 71 69 71 71 71 71 69 69 70 69 69 69 70 71 72 73 74 75 74 73 72 73 72 72
57 50 58 53 47 47 51 57 64 68 67 67 68 76 73 73 73 74 75 75 75 76 75 76 73 73 71 71 71 71 71 70 70 70 69 70 69 71 71 73 73 74 74 74 73 72 73 72 71
60 63 50 49 42 41 49 52 54 58 61 63 65 71 72 75 71 72 74 74 76 77 76 75 74 73 73 71 70 71 71 71 71 70 70 70 69 69 71 72 73 73 74 74 73 72 73 72 71
56 53 51 51 48 44 43 50 62 60 62 62 64 71 74 73 71 72 73 74 75 75 76 74 72 72 72 72 71 71 71 71 71 70 71 70 69 68 69 70 72 72 73 73 72 72 73 73 72
63 53 52 49 48 46 48 51 62 62 61 65 65 67 71 74 74 73 74 72 73 71 75 73 73 73 74 74 73 71 71 71 70 70 70 69 68 67 68 70 71 71 72 71 71 72 74 73 72
MSLP
1010.12 1010.39 1010.61 1011.02 1011.71 1011.21 1010.70 1010.34 1009.68 1009.81 1010.20 1009.87 1010.44 1010.90 1012.01 1012.44 1013.11 1014.55 1014.06 1014.71 1014.87 1015.16 1015.33 1015.43 1015.52 1015.54 1015.55 1015.63 1015.61 1015.78 1015.81 1015.88 1015.98 1016.18 1016.36 1016.54 1016.68 1016.76 1016.79 1016.79 1016.80 1016.82 1016.74 1016.83 1016.92 1017.10 1017.13 1017.17 1017.14
1010.14 1010.36 1010.75 1010.89 1011.14 1011.04 1010.70 1009.82 1009.38 1009.21 1009.28 1009.58 1010.25 1010.81 1011.86 1013.03 1013.30 1014.12 1014.80 1014.93 1014.91 1015.29 1015.53 1015.62 1015.64 1015.80 1015.91 1015.94 1015.86 1015.86 1015.88 1016.13 1016.44 1016.55 1016.80 1016.87 1016.99 1017.08 1017.12 1017.09 1017.20 1017.27 1017.24 1017.26 1017.26 1017.39 1017.43 1017.38 1017.38
1009.93 1009.84 1010.32 1010.77 1010.95 1010.77 1010.28 1009.72 1009.39 1009.32 1009.52 1009.79 1010.53 1011.02 1012.22 1013.51 1013.88 1014.18 1014.34 1014.84 1015.11 1015.51 1015.76 1015.82 1015.87 1015.98 1016.06 1016.08 1016.19 1016.26 1016.32 1016.48 1016.69 1016.86 1017.10 1017.18 1017.17 1017.31 1017.36 1017.35 1017.54 1017.62 1017.66 1017.74 1017.69 1017.83 1017.69 1017.64 1017.61
1009.70 1010.00 1010.36 1010.55 1010.66 1009.89 1009.52 1009.51 1009.34 1009.32 1009.74 1009.98 1010.75 1011.90 1012.79 1013.41 1013.92 1014.24 1014.68 1014.97 1015.62 1015.92 1016.08 1015.99 1016.03 1016.10 1016.26 1016.42 1016.48 1016.48 1016.68 1016.84 1016.98 1017.20 1017.29 1017.39 1017.39 1017.49 1017.61 1017.59 1017.74 1017.80 1017.89 1017.98 1018.05 1018.12 1018.11 1018.07 1017.96
1009.68 1009.90 1010.43 1010.81 1010.43 1009.79 1009.68 1009.34 1009.43 1009.70 1010.17 1010.62 1011.11 1012.84 1013.60 1014.25 1014.21 1014.77 1015.16 1015.55 1015.98 1016.34 1016.40 1016.31 1016.27 1016.46 1016.57 1016.71 1016.75 1016.86 1017.04 1017.13 1017.27 1017.46 1017.50 1017.47 1017.53 1017.64 1017.70 1017.84 1018.00 1018.20 1018.29 1018.34 1018.41 1018.43 1018.44 1018.40 1018.37
1010.29 1010.76 1011.07 1011.14 1010.35 1010.01 1009.88 1009.41 1009.75 1010.17 1010.70 1011.23 1011.99 1013.10 1014.64 1014.70 1014.61 1015.32 1015.64 1015.98 1016.15 1016.54 1016.54 1016.52 1016.62 1016.73 1016.79 1016.91 1017.04 1017.19 1017.26 1017.34 1017.56 1017.67 1017.64 1017.67 1017.77 1017.79 1017.84 1017.98 1018.16 1018.35 1018.52 1018.68 1018.73 1018.78 1018.80 1018.76 1018.76
1010.53 1011.07 1011.84 1011.38 1010.71 1010.31 1009.94 1009.73 1009.34 1010.23 1010.97 1011.49 1011.87 1013.68 1015.05 1015.32 1015.26 1015.64 1016.01 1016.30 1016.43 1016.65 1016.78 1016.91 1016.86 1016.80 1016.93 1017.06 1017.22 1017.31 1017.33 1017.67 1017.74 1017.79 1017.91 1017.96 1018.02 1018.08 1018.18 1018.30 1018.40 1018.52 1018.68 1018.78 1018.94 1019.00 1019.09 1019.04 1019.02
1010.62 1011.14 1011.79 1011.48 1010.77 1010.27 1009.90 1009.69 1009.86 1010.08 1011.02 1011.50 1012.15 1013.79 1014.79 1015.24 1015.64 1016.03 1016.51 1016.82 1017.04 1017.02 1017.04 1017.11 1017.06 1017.14 1017.21 1017.34 1017.32 1017.49 1017.66 1017.72 1017.88 1017.99 1018.11 1018.22 1018.29 1018.39 1018.48 1018.70 1018.72 1018.70 1018.79 1018.91 1019.05 1019.06 1019.10 1019.13 1019.15
1010.60 1011.40 1011.80 1011.50 1010.82 1010.36 1009.82 1009.76 1010.43 1010.36 1010.82 1011.58 1011.98 1012.90 1013.96 1015.06 1015.79 1016.34 1016.95 1017.34 1017.37 1017.39 1017.38 1017.30 1017.41 1017.58 1017.62 1017.69 1017.67 1017.76 1017.74 1017.98 1018.16 1018.29 1018.45 1018.57 1018.90 1018.95 1018.97 1018.92 1018.78 1018.86 1018.89 1019.03 1019.12 1019.17 1019.01 1019.26 1019.37
1010.89 1011.70 1011.48 1011.61 1011.26 1010.84 1010.12 1009.55 1009.88 1010.89 1011.42 1012.13 1012.57 1013.61 1014.48 1015.32 1015.80 1016.35 1016.91 1017.21 1017.37 1017.50 1017.62 1017.57 1017.71 1017.79 1017.73 1017.73 1017.94 1018.09 1018.01 1018.32 1018.53 1018.82 1019.11 1019.37 1019.39 1019.25 1019.16 1019.06 1018.82 1018.92 1018.99 1019.18 1019.30 1019.04 1019.38 1019.48 1019.62
1010.90 1011.62 1011.46 1011.81 1011.66 1011.62 1011.24 1010.88 1009.78 1010.50 1011.42 1011.79 1012.63 1013.60 1014.71 1015.48 1016.00 1016.25 1016.79 1016.83 1016.94 1017.25 1017.64 1017.75 1017.89 1017.88 1017.95 1018.08 1018.26 1018.44 1018.50 1018.96 1019.10 1019.36 1019.54 1019.56 1019.52 1019.54 1019.60 1019.56 1019.46 1019.45 1019.43 1019.50 1019.42 1019.46 1019.59 1019.70 1019.72
1010.86 1011.39 1011.68 1012.29 1012.22 1012.27 1011.84 1011.33 1010.47 1010.08 1010.81 1011.66 1012.56 1013.48 1014.30 1015.23 1015.81 1016.09 1016.65 1017.02 1017.10 1017.35 1017.63 1017.82 1017.90 1018.02 1018.13 1018.27 1018.62 1018.80 1019.12 1019.29 1019.43 1019.54 1019.54 1019.65 1019.82 1019.80 1019.84 1019.99 1020.03 1020.17 1020.01 1019.94 1019.85 1019.74 1019.56 1019.41 1019.32
1010.73 1011.55 1012.36 1012.54 1012.49 1012.37 1011.89 1011.25 1010.78 1010.76 1011.09 1012.08 1012.90 1013.70 1014.25 1015.06 1015.74 1016.09 1016.64 1016.88 1017.16 1017.40 1017.59 1017.78 1017.88 1018.05 1018.14 1018.40 1018.78 1019.05 1019.13 1019.31 1019.38 1019.48 1019.50 1019.70 1020.03 1019.90 1019.81 1020.00 1020.10 1020.02 1020.10 1019.96 1019.76 1019.70 1019.57 1019.41 1019.25
1010.55 1011.74 1012.21 1012.67 1012.85 1012.48 1011.63 1011.05 1011.01 1011.05 1011.14 1012.23 1013.12 1013.73 1014.26 1014.74 1015.40 1016.03 1016.41 1016.79 1017.10 1017.34 1017.56 1017.76 1017.92 1018.01 1018.16 1018.60 1018.74 1019.00 1019.16 1019.25 1019.54 1019.58 1019.62 1019.74 1019.87 1019.84 1019.77 1019.98 1019.98 1019.87 1019.84 1019.70 1019.62 1019.54 1019.34 1019.12 1019.08
1011.01 1012.17 1012.74 1013.06 1013.22 1012.83 1011.98 1011.33 1010.80 1010.76 1011.45 1012.18 1013.01 1013.71 1014.21 1014.64 1015.11 1015.48 1015.81 1016.45 1016.66 1017.06 1017.47 1017.63 1017.70 1017.68 1018.04 1018.53 1018.62 1018.90 1019.13 1019.18 1019.50 1019.46 1019.56 1019.60 1019.58 1019.63 1019.71 1019.93 1019.90 1019.87 1019.84 1019.71 1019.54 1019.26 1018.94 1019.10 1019.20
1011.52 1012.46 1012.85 1013.43 1013.68 1013.10 1012.73 1011.42 1010.95 1010.59 1011.28 1012.29 1012.89 1013.48 1014.02 1014.44 1014.73 1015.17 1015.64 1016.12 1016.52 1016.92 1017.34 1017.48 1017.61 1017.80 1017.96 1018.34 1018.55 1018.74 1018.89 1019.17 1019.53 1019.46 1019.46 1019.28 1019.40 1019.40 1019.69 1019.84 1019.85 1019.90 1019.74 1019.55 1019.37 1019.32 1019.08 1019.25 1019.20
1012.17 1013.36 1013.62 1014.25 1013.88 1013.49 1012.82 1011.79 1011.28 1011.08 1011.22 1011.88 1012.64 1013.20 1013.71 1014.47 1015.03 1015.18 1015.51 1015.98 1016.32 1016.68 1017.20 1017.49 1017.64 1017.82 1018.00 1018.18 1018.56 1018.82 1018.92 1019.17 1019.51 1019.52 1019.46 1019.34 1019.25 1019.41 1019.68 1019.80 1019.99 1019.88 1019.87 1019.61 1019.35 1019.29 1019.16 1019.28 1019.30
1012.17 1013.47 1014.27 1014.16 1014.23 1013.53 1013.14 1012.09 1011.83 1011.78 1011.83 1011.92 1012.63 1013.16 1013.65 1014.21 1014.64 1014.90 1015.32 1015.85 1016.18 1016.68 1017.14 1017.40 1017.69 1017.86 1018.02 1018.33 1018.79 1019.05 1019.13 1019.18 1019.19 1019.34 1019.40 1019.40 1019.36 1019.28 1019.69 1019.95 1019.98 1019.80 1019.91 1019.58 1019.41 1019.52 1019.40 1019.30 1019.36
1011.74 1012.96 1013.86 1014.53 1014.22 1013.77 1013.60 1013.32 1012.96 1012.92 1012.64 1012.71 1013.02 1013.08 1013.46 1013.92 1014.15 1014.65 1015.25 1015.76 1016.27 1016.79 1017.28 1017.38 1017.74 1017.90 1018.19 1018.70 1019.15 1019.22 1019.34 1019.35 1019.51 1019.33 1019.44 1019.48 1019.46 1019.43 1019.34 1019.95 1019.95 1019.96 1020.10 1019.88 1019.83 1019.91 1019.80 1019.74 1019.68
1011.79 1012.48 1013.86 1014.31 1014.09 1014.65 1014.40 1014.11 1014.10 1013.86 1013.54 1013.28 1013.36 1013.19 1013.29 1013.99 1014.35 1014.88 1015.46 1015.78 1016.16 1016.48 1016.96 1017.41 1017.59 1017.79 1018.23 1018.42 1018.68 1018.80 1019.06 1019.38 1019.36 1019.32 1019.34 1019.57 1019.44 1019.32 1019.46 1019.80 1020.04 1019.98 1020.03 1019.88 1019.88 1019.96 1019.84 1019.94 1019.80
1011.74 1011.92 1012.62 1013.50 1014.47 1014.70 1014.60 1014.62 1014.39 1014.00 1013.70 1013.36 1013.33 1013.21 1012.95 1013.45 1014.14 1014.76 1015.30 1015.56 1016.12 1016.46 1016.69 1017.15 1017.38 1017.56 1018.03 1018.31 1018.62 1019.02 1019.22 1019.48 1019.84 1019.84 1019.84 1019.75 1019.64 1019.36 1019.51 1019.64 1019.98 1020.08 1020.02 1020.11 1020.18 1020.15 1019.98 1020.30 1020.35
1011.50 1011.75 1012.30 1013.10 1014.06 1014.72 1014.62 1014.56 1013.92 1013.74 1013.62 1013.36 1013.20 1013.17 1013.17 1013.34 1013.60 1014.14 1014.94 1015.50 1015.91 1016.04 1016.45 1016.88 1017.30 1017.50 1017.84 1018.18 1018.56 1018.96 1019.37 1019.79 1019.81 1019.83 1019.90 1019.84 1019.79 1019.87 1019.70 1019.52 1019.68 1019.96 1020.08 1020.18 1020.18 1020.11 1020.22 1020.26 1020.59
1011.20 1011.71 1012.81 1013.47 1013.88 1014.68 1014.88 1015.07 1013.26 1013.21 1013.06 1012.80 1012.70 1012.76 1012.91 1013.17 1013.46 1013.91 1014.37 1014.86 1015.34 1015.91 1016.18 1016.65 1017.30 1017.64 1017.78 1018.07 1018.44 1018.92 1019.41 1019.58 1019.64 1019.88 1020.03 1020.05 1019.97 1019.84 1019.72 1019.78 1019.83 1020.04 1020.18 1020.00 1020.04 1020.23 1020.26 1020.30 1020.69
1011.31 1012.20 1013.09 1013.20 1014.12 1014.51 1013.91 1014.18 1012.76 1012.17 1011.84 1011.90 1011.92 1012.00 1012.45 1012.66 1013.20 1013.40 1013.79 1014.52 1015.11 1015.71 1016.33 1016.74 1017.16 1017.69 1017.72 1017.96 1018.35 1018.74 1019.18 1019.54 1019.87 1019.96 1020.04 1020.04 1020.06 1019.99 1019.92 1019.84 1019.86 1019.94 1020.02 1020.17 1020.16 1020.13 1020.32 1020.37 1020.49
1011.10 1012.15 1013.12 1013.96 1014.39 1013.95 1013.13 1013.09 1010.67 1010.27 1010.06 1010.20 1010.42 1011.08 1011.73 1012.33 1012.68 1013.32 1013.85 1014.40 1015.02 1015.54 1015.99 1016.70 1017.08 1017.40 1017.64 1017.69 1018.10 1018.43 1018.72 1019.03 1019.34 1019.54 1019.70 1019.98 1020.02 1019.89 1019.89 1019.84 1019.99 1019.81 1019.85 1019.96 1020.12 1020.25 1020.37 1020.43 1020.48
1010.68 1011.14 1011.91 1013.71 1013.98 1013.42 1012.71 1011.40 1009.22 1008.21 1008.64 1008.65 1008.78 1009.17 1010.62 1011.83 1012.03 1012.56 1013.12 1013.74 1014.36 1014.96 1015.59 1016.22 1016.74 1017.10 1017.31 1017.53 1017.78 1018.09 1018.32 1018.64 1018.82 1019.14 1019.44 1019.65 1019.74 1019.74 1019.55 1019.70 1019.75 1019.72 1019.66 1019.91 1019.98 1020.21 1020.18 1020.25 1020.39
1010.44 1010.91 1010.96 1011.98 1013.12 1013.10 1011.92 1010.58 1008.84 1007.72 1008.26 1008.55 1008.77 1008.94 1009.59 1010.66 1011.51 1012.00 1012.62 1013.38 1014.03 1014.60 1015.25 1015.56 1016.20 1016.65 1017.02 1017.20 1017.58 1017.91 1018.22 1018.52 1018.64 1018.90 1019.14 1019.28 1019.49 1019.53 1019.52 1019.46 1019.54 1019.52 1019.60 1019.64 1019.76 1020.03 1020.06 1020.13 1020.31
1009.09 1009.69 1010.89 1011.78 1012.90 1012.84 1011.64 1010.62 1009.14 1008.74 1008.60 1008.61 1008.64 1008.44 1008.99 1009.77 1010.99 1011.78 1012.31 1012.96 1013.55 1013.98 1014.62 1015.20 1015.60 1015.99 1016.46 1016.96 1017.30 1017.65 1017.90 1018.10 1018.34 1018.71 1019.06 1019.10 1019.32 1019.34 1019.45 1019.51 1019.32 1019.23 1019.41 1019.46 1019.75 1019.93 1020.05 1020.25 1020.35
1009.55 1009.70 1010.44 1011.30 1011.98 1012.14 1011.82 1010.57 1009.36 1008.68 1008.75 1008.70 1008.95 1008.63 1008.57 1009.72 1010.58 1011.35 1011.94 1012.47 1013.02 1013.63 1014.24 1014.82 1015.39 1015.92 1016.30 1016.72 1017.16 1017.36 1017.65 1017.96 1018.28 1018.48 1018.56 1018.90 1019.13 1019.18 1019.38 1019.55 1019.52 1019.36 1019.40 1019.35 1019.69 1019.88 1019.96 1020.11 1020.12
1008.96 1009.78 1010.34 1011.24 1011.98 1011.93 1011.78 1011.28 1010.46 1009.60 1009.83 1009.50 1009.68 1009.70 1009.86 1009.16 1010.22 1010.85 1011.40 1012.00 1012.77 1013.21 1013.74 1014.47 1014.94 1015.34 1015.70 1016.01 1016.73 1017.17 1017.45 1017.82 1018.09 1018.32 1018.40 1018.56 1018.74 1019.01 1019.15 1019.31 1019.50 1019.41 1019.37 1019.55 1019.67 1019.72 1019.71 1019.90 1020.03
Wind_Speed
5 5 2 2 2 3 3 2 4 8 5 5 11 8 5 5 4 4 5 10 6 5 4 4 7 10 10 11 11 13 13 15 14 14 14 13 12 11 12 12 11 11 13 13 12 12 13 12 12
3 5 1 1 5 5 2 2 7 8 7 10 4 12 6 5 4 11 10 6 9 6 4 4 7 9 10 11 12 13 13 14 12 13 12 12 12 12 11 12 11 10 11 11 11 10 10 11 9
4 2 2 3 2 3 5 1 6 9 9 4 5 6 5 3 8 12 7 12 9 6 5 4 9 9 10 10 12 12 13 14 13 12 11 12 12 12 11 10 11 11 10 9 9 8 9 8 8
2 1 2 4 3 4 6 8 13 11 7 8 11 9 6 9 5 7 15 13 8 5 4 7 10 10 9 10 10 11 12 11 13 12 11 10 10 9 10 10 9 9 8 8 7 7 7 7 9
2 2 4 4 2 6 6 11 7 8 5 9 3 8 6 3 15 15 14 12 10 6 5 6 11 11 10 10 11 12 12 12 12 12 11 10 10 9 9 8 7 6 6 7 6 6 6 7 9
3 1 4 3 4 7 9 12 11 9 7 10 12 10 3 11 15 12 11 10 8 7 5 5 9 11 10 10 11 12 13 12 11 11 9 10 9 9 9 8 7 6 6 5 5 4 4 7 9
4 3 3 3 5 6 6 10 12 14 12 6 9 6 3 6 9 10 9 9 6 5 5 4 4 8 10 10 10 11 12 12 11 10 9 9 9 9 8 7 6 6 6 6 5 5 5 7 8
4 4 3 3 6 5 5 4 7 14 5 13 10 6 9 5 9 9 8 6 5 4 4 4 4 4 4 5 11 11 11 11 11 10 8 8 8 8 7 6 4 5 5 5 4 4 4 5 6
1 4 1 3 8 2 6 11 5 5 15 5 3 9 11 14 12 11 8 5 4 4 4 4 4 5 4 3 6 10 11 10 10 8 7 4 3 4 5 2 4 5 6 6 6 4 5 5 5
4 2 2 3 2 3 10 14 14 9 11 13 14 11 17 16 14 13 11 9 6 6 4 4 5 5 5 3 4 3 4 4 3 2 4 4 2 1 2 4 4 6 7 9 10 9 9 7 3
2 5 3 4 2 4 5 3 10 19 12 18 20 18 17 17 12 12 10 12 11 8 5 5 5 4 4 3 3 1 3 3 2 3 3 2 2 2 3 2 3 4 8 4 5 5 3 4 2
5 3 6 2 2 3 2 10 3 17 8 17 21 20 19 17 14 13 10 8 9 7 5 6 6 5 4 3 3 3 3 3 1 1 1 2 1 1 2 1 4 4 3 4 4 3 5 6 5
3 8 7 3 7 6 8 7 3 7 16 18 20 21 21 16 13 10 8 9 7 8 6 6 6 5 4 4 3 3 3 3 3 3 4 4 1 2 1 3 2 2 2 3 3 4 4 5 5
6 6 4 0 4 9 7 5 9 6 19 19 20 19 18 17 14 9 10 9 9 6 8 6 7 6 6 4 5 4 3 4 3 3 3 4 3 3 0 2 2 2 2 3 3 4 4 3 3
14 7 7 6 3 6 6 4 9 19 19 22 19 16 15 16 13 14 16 13 11 8 9 9 8 7 7 6 5 4 4 4 4 4 5 5 4 2 1 1 3 3 3 4 3 4 3 3 1
3 6 3 7 8 6 5 4 12 21 21 19 17 15 14 14 16 14 13 12 9 7 8 7 7 6 6 6 5 3 4 4 3 3 3 3 4 3 2 1 2 3 3 3 3 2 1 3 2
6 6 4 2 6 6 3 5 10 14 18 20 17 15 15 14 11 12 14 12 9 8 8 8 6 7 7 6 5 4 4 3 4 3 2 2 4 4 3 2 1 3 3 3 2 1 1 0 1
4 7 4 3 3 3 4 5 6 5 11 16 12 13 15 15 14 14 15 12 10 7 7 7 5 7 7 5 4 1 2 1 2 2 2 2 2 3 4 3 1 2 2 3 4 2 2 2 2
5 9 6 2 6 1 3 3 6 6 3 2 6 12 13 15 12 14 15 14 10 7 7 8 7 6 5 3 3 2 3 1 1 3 4 3 3 3 4 4 3 2 1 3 3 1 3 4 2
8 10 6 3 2 2 7 10 0 4 3 3 2 5 15 7 12 12 13 13 12 11 10 8 8 8 4 3 2 3 3 1 0 1 1 3 4 3 4 4 3 2 2 5 5 5 2 4 4
2 5 8 6 4 2 4 5 5 4 3 2 3 2 13 18 16 15 16 14 11 12 11 10 9 8 6 5 4 3 4 3 2 1 0 1 2 3 4 3 3 4 2 3 2 3 4 2 4
5 1 7 12 5 2 2 2 7 11 7 3 6 5 7 16 17 17 16 14 13 14 9 7 7 8 7 8 5 5 4 4 3 3 2 1 1 2 3 4 4 3 2 3 1 2 2 2 1
3 11 9 4 4 1 4 1 4 8 9 11 7 8 7 15 18 19 19 17 15 11 11 9 7 7 6 7 7 5 4 2 2 2 2 2 1 2 2 2 3 3 2 2 3 2 3 2 2
14 11 5 3 4 3 5 4 5 7 14 13 8 10 8 17 17 19 18 15 13 10 8 7 9 7 7 7 8 8 8 6 4 3 3 3 2 2 2 2 4 3 2 2 2 2 1 3 3
6 4 3 4 3 4 0 3 9 13 13 22 18 12 10 12 18 17 16 15 12 12 11 9 10 8 7 8 8 8 8 8 7 6 4 4 3 2 3 2 4 3 3 3 3 3 2 1 1
9 5 7 3 2 3 2 6 7 11 14 18 18 20 15 10 17 19 18 16 15 15 14 12 11 9 9 8 8 7 8 5 5 5 4 4 4 2 4 3 5 5 3 3 3 1 2 3 2
6 4 2 8 2 0 4 6 8 4 5 6 9 16 19 16 15 19 17 15 15 15 15 15 12 10 9 9 6 7 6 6 5 6 5 4 4 4 4 5 5 4 3 3 3 3 3 2 2
6 7 3 2 4 4 4 5 8 2 8 6 14 20 17 18 13 13 15 16 14 15 15 13 13 14 11 8 6 6 6 7 6 5 6 6 4 4 5 5 5 4 3 4 4 2 2 3 3
2 2 4 5 5 5 1 6 6 7 7 8 5 12 19 16 15 13 13 14 15 13 13 13 10 10 10 9 7 7 7 6 5 6 6 6 5 6 6 5 4 3 2 4 5 5 4 4 3
7 3 4 6 3 1 3 4 9 10 7 8 5 4 3 18 19 16 16 12 14 15 13 13 11 12 12 11 8 7 6 6 6 6 5 4 5 4 6 5 5 4 3 2 5 5 4 5 5
Wind_Direction
157 156 131 112 78 64 88 103 159 117 152 201 161 150 131 55 135 175 147 157 133 129 167 151 140 120 113 107 104 104 109 110 113 118 115 111 110 111 114 109 102 100 101 104 103 103 106 103 99
172 174 137 84 70 76 10 80 141 160 152 111 84 116 56 55 66 113 114 174 139 140 143 144 132 114 113 118 112 112 111 115 107 108 113 120 116 118 117 104 108 104 93 100 107 106 99 96 89
179 178 117 82 87 127 135 84 117 101 121 97 103 72 77 60 111 131 127 141 127 129 137 173 131 131 125 115 117 115 120 121 120 116 117 121 122 120 119 114 109 98 100 105 106 104 96 83 70
211 109 44 72 27 345 129 137 126 132 71 59 106 71 69 115 112 138 135 131 125 138 155 166 149 139 130 125 121 124 123 127 123 120 118 116 116 110 116 106 107 102 109 110 116 106 88 68 66
13 10 27 63 292 101 133 144 136 110 66 96 64 90 70 35 110 124 133 134 145 143 171 162 153 141 140 139 135 129 130 126 130 130 134 123 129 134 127 121 110 109 113 98 112 107 94 73 57
35 89 57 67 87 96 128 135 121 98 92 96 88 96 33 135 125 135 131 138 148 143 148 159 149 140 146 140 133 134 141 140 133 125 130 131 129 114 113 109 101 86 77 77 82 83 82 65 52
108 77 71 306 101 111 155 145 127 126 123 93 119 82 102 135 124 126 135 130 123 132 131 120 140 146 143 142 140 143 141 138 142 140 138 135 125 109 105 101 102 97 85 70 53 41 45 57 51
105 88 77 302 156 146 168 105 116 120 83 107 132 145 165 172 121 120 115 101 118 144 137 134 137 113 115 141 149 140 142 149 146 149 142 125 123 116 105 66 76 81 78 76 62 20 20 53 56
138 67 236 287 133 92 148 127 160 82 125 128 147 132 139 135 139 128 122 119 135 151 141 153 146 122 133 133 151 141 146 148 149 152 155 124 52 71 82 95 63 45 37 33 33 359 353 1 17
91 116 148 24 15 15 162 152 136 134 138 110 102 103 134 144 154 149 155 155 166 167 172 179 145 152 146 137 121 116 143 94 100 91 75 49 38 92 55 55 45 34 19 9 1 347 351 345 350
49 176 228 348 201 32 343 204 142 150 152 153 149 145 152 154 158 161 161 166 175 172 170 179 152 170 148 138 134 107 79 87 87 100 97 82 70 48 46 11 6 15 15 1 357 348 352 328 292
112 218 177 127 36 62 316 314 209 160 157 151 144 150 150 161 167 169 165 174 163 167 178 166 161 168 181 141 127 111 112 124 125 139 168 122 81 51 61 34 14 17 351 337 346 336 317 309 299
153 164 177 140 330 311 278 264 170 155 134 141 145 153 162 162 166 169 166 160 163 172 162 171 161 174 178 163 137 138 161 156 181 197 197 146 170 273 19 47 53 49 343 330 307 287 281 284 290
167 119 163 137 303 296 277 221 217 169 141 146 158 166 164 164 166 149 158 160 172 165 168 166 180 185 178 163 161 171 161 170 152 181 177 172 192 200 119 344 342 321 276 296 310 279 253 266 329
122 124 154 124 11 293 346 221 180 146 149 156 169 172 168 170 159 165 171 167 176 174 162 174 188 189 182 166 161 163 169 152 165 182 170 190 159 172 127 359 325 302 338 322 310 292 292 7 326
81 53 21 35 333 238 280 192 164 156 152 165 168 171 171 176 169 174 163 169 176 153 160 168 184 173 166 162 163 173 181 152 166 197 177 186 132 124 115 252 318 342 346 329 333 312 288 142 113
26 112 69 7 321 285 298 134 170 172 159 171 172 174 177 173 165 167 167 169 171 162 161 167 160 151 139 133 136 154 176 165 162 181 181 193 129 149 152 106 79 36 12 341 327 354 36 242 291
156 124 128 176 296 238 338 115 122 169 176 169 158 163 167 165 170 168 168 170 174 156 169 155 154 149 127 118 118 135 143 181 144 197 210 193 144 171 123 116 98 39 358 12 10 354 352 155 226
113 105 116 185 254 271 354 39 151 1 6 127 157 159 161 170 176 167 167 169 173 158 163 163 157 162 127 114 133 119 160 190 195 210 211 171 166 164 91 111 115 80 27 50 5 321 33 44 360
124 126 132 200 226 231 184 224 159 306 267 112 2 190 170 144 150 162 171 170 182 178 176 168 173 162 165 143 164 143 143 160 134 146 224 205 173 153 112 106 128 87 67 39 30 15 16 35 8
209 159 180 139 126 339 147 206 214 281 280 289 258 237 175 161 166 168 174 175 181 189 184 176 173 166 160 150 109 75 59 55 82 46 305 301 230 164 140 127 130 92 77 66 24 13 56 114 14
174 231 132 127 128 243 23 250 241 191 248 223 234 229 181 178 171 169 174 178 186 195 174 167 168 164 167 163 140 146 154 165 194 163 157 92 114 332 264 153 125 114 108 88 43 18 41 84 111
181 108 112 136 98 200 162 262 263 180 219 250 224 223 200 178 175 174 180 183 187 182 182 167 162 164 164 152 150 148 148 154 148 150 157 150 98 85 232 267 149 167 149 129 109 64 63 65 91
125 101 54 108 70 325 183 188 206 180 207 233 215 206 195 176 181 182 180 178 182 179 176 163 164 182 169 153 152 158 164 169 159 189 193 184 155 114 84 229 185 185 184 153 176 137 91 109 115
127 113 51 39 347 238 194 182 239 202 200 208 215 185 186 190 177 179 174 179 176 178 180 170 178 182 186 167 162 167 170 173 182 189 186 178 183 172 199 184 199 195 197 200 167 156 169 146 149
171 142 139 112 271 263 111 239 261 202 191 204 187 174 171 187 183 178 181 180 179 182 183 179 184 190 185 182 179 177 172 181 195 194 190 198 203 200 174 218 205 203 195 227 174 238 197 132 165
230 207 192 117 333 243 205 279 291 255 175 191 209 193 181 179 184 183 180 181 182 182 188 186 185 197 195 191 177 183 179 188 203 196 190 193 197 202 190 215 217 187 215 220 209 196 229 211 201
179 166 77 21 154 232 272 273 247 132 192 215 209 206 188 171 164 174 181 181 189 186 188 188 188 193 193 193 178 190 198 190 191 184 189 194 207 207 203 226 217 184 237 214 199 227 225 192 214
189 228 57 121 143 169 251 267 315 210 185 190 226 193 175 161 167 181 182 185 190 187 185 192 180 189 188 190 193 190 197 201 183 201 194 200 184 197 210 232 238 207 269 227 192 213 217 247 212
128 107 143 127 216 198 149 307 339 49 56 86 63 28 264 162 188 184 186 177 185 185 187 187 185 188 199 191 187 187 193 195 193 203 215 183 216 215 223 207 220 227 218 188 231 219 225 224 243